THOR ABLESTAR DEB, 3124

Orbit data source: Space-Track

THOR ABLESTAR DEB, 3124 is space debris in LEO originally from a launch on Thu, 29 Jun 1961 UTC launched from the Air Force Eastern Test Range (AFETR). Debris objects in space refer to the collection of defunct objects orbiting the Earth. Examples of debris include non-operational satellites, rocket bodies, and fragments generated from explosions, collisions, or faulty payload assembly.

Loading next visibility...
Identifier
3124, 1961-015HX
Orbit
LEO
Country
Flag of USUS
Related business
Manufacturer
Unknown
Mission
Spacecraft
Bus & Motor
Unknown
Mass
Unknown
Launch date (UTC)
1961-06-29 (64 years ago)
Launch vehicle
Unknown
Launch site
Air Force Eastern Test Range (AFETR)
Object type
Payload
Rocket body
Debris
Shape & HBR
Unknown shape, 0.1 m
Radar Cross Section
Small (<0.1 m²)

Expand to show TLE details & history
Last TLE update: 9 hours ago

TLE from 9 hours ago
0 THOR ABLESTAR DEB
1  3124U 61015HX  25307.79236816  .00003311  00000-0  33723-2 0  9990
2  3124  66.9872  79.6677 0326270 236.9031 120.0322 13.56854753138555
Epoch: 2025-11-03T19:01Z
TLE epoch observation values (Epoch: 2025-11-03T19:01:00.609Z)
Latitude
-0.00004°
Longitude
111.12649°
Altitude
1,176.242 km
Speed
7.203 km/s
True Right ascension
05h 18m 40s
True Declination
0° 00' 00"
Sunlit
Object was in full shadow at epoch
Visualization orbit readout
Latitude
Unknown
Longitude
Unknown
Altitude
Unknown
Speed
Unknown
Apparent Right ascension
Unknown
Apparent Declination
Unknown
Sunlit
N/A
Visualization observer readout
Local Sidereal Time
23:28:28
Azimuth
Unknown
Elevation
Unknown
Doppler factor
Unknown
Orbital elements
Apogee altitude
1,287.753 km
Perigee altitude
803.329 km
Semi-major axis
7,423.678 km
Eccentricity
0.03263
Inclination
66.9872°
RAAN
79.6677°
Arg. of periapsis
236.9031°
True anomaly
123.20261°
Mean anomaly
120.0322°
Eccentric anomaly
121.624°
Mean motion
3.39324 °/min
Orbital period
106.09 mins
BSTAR
0.0033723

Documentation

Showing up to 5 results
|